TimeEDT,TemperatureF,Dew PointF,Humidity,Sea Level PressureIn,VisibilityMPH,Wind Direction,Wind SpeedMPH,Gust SpeedMPH,PrecipitationIn,Events,Conditions,WindDirDegrees,DateUTC
12:53 AM,66.9,51.1,57,30.24,10.0,East,6.9,-,N/A,,Partly Cloudy,90,2013-03-30 04:53:00
1:53 AM,66.9,50.0,54,30.22,10.0,East,6.9,-,N/A,,Partly Cloudy,80,2013-03-30 05:53:00
2:53 AM,66.9,50.0,54,30.22,10.0,East,5.8,-,N/A,,Partly Cloudy,90,2013-03-30 06:53:00
3:53 AM,66.0,50.0,56,30.22,10.0,East,4.6,-,N/A,,Partly Cloudy,100,2013-03-30 07:53:00
4:53 AM,66.9,50.0,54,30.20,10.0,ENE,4.6,-,N/A,,Partly Cloudy,70,2013-03-30 08:53:00
5:53 AM,66.9,50.0,54,30.21,10.0,East,8.1,-,N/A,,Partly Cloudy,90,2013-03-30 09:53:00
6:53 AM,66.9,50.0,54,30.22,10.0,East,6.9,-,N/A,,Partly Cloudy,80,2013-03-30 10:53:00
7:53 AM,68.0,50.0,52,30.24,10.0,East,6.9,-,N/A,,Partly Cloudy,90,2013-03-30 11:53:00
8:53 AM,70.0,48.9,47,30.27,10.0,East,8.1,-,N/A,,Scattered Clouds,100,2013-03-30 12:53:00
9:53 AM,72.0,50.0,46,30.26,10.0,East,10.4,-,N/A,,Partly Cloudy,90,2013-03-30 13:53:00
10:53 AM,73.0,48.0,41,30.27,10.0,East,9.2,-,N/A,,Partly Cloudy,100,2013-03-30 14:53:00
11:53 AM,73.9,46.9,38,30.26,10.0,ESE,9.2,18.4,N/A,,Partly Cloudy,110,2013-03-30 15:53:00
12:53 PM,73.9,48.0,40,30.25,10.0,East,10.4,-,N/A,,Partly Cloudy,100,2013-03-30 16:53:00
1:53 PM,73.9,50.0,43,30.23,10.0,East,11.5,-,N/A,,Partly Cloudy,80,2013-03-30 17:53:00
2:53 PM,73.9,51.1,45,30.20,10.0,ESE,12.7,19.6,N/A,,Partly Cloudy,110,2013-03-30 18:53:00
3:53 PM,73.9,50.0,43,30.18,10.0,East,12.7,18.4,N/A,,Partly Cloudy,100,2013-03-30 19:53:00
4:53 PM,73.9,50.0,43,30.17,10.0,East,10.4,-,N/A,,Partly Cloudy,100,2013-03-30 20:53:00
5:53 PM,73.0,50.0,44,30.17,10.0,ESE,9.2,-,N/A,,Partly Cloudy,110,2013-03-30 21:53:00
6:53 PM,71.1,52.0,51,30.17,10.0,ESE,9.2,-,N/A,,Partly Cloudy,120,2013-03-30 22:53:00
7:53 PM,69.1,52.0,54,30.18,10.0,ESE,9.2,-,N/A,,Scattered Clouds,110,2013-03-30 23:53:00
8:53 PM,69.1,53.1,57,30.19,10.0,ESE,9.2,-,N/A,,Partly Cloudy,120,2013-03-31 00:53:00
9:53 PM,68.0,52.0,56,30.20,10.0,SE,10.4,-,N/A,,Partly Cloudy,130,2013-03-31 01:53:00
10:53 PM,66.9,53.1,61,30.21,10.0,ESE,8.1,-,N/A,,Partly Cloudy,110,2013-03-31 02:53:00
11:53 PM,68.0,53.1,59,30.21,10.0,ESE,8.1,-,N/A,,Partly Cloudy,110,2013-03-31 03:53:00